Вернуться в каталог

STARLINK-30233

АктивенСвязьVLEO
NORAD 57302·PAYLOAD·🇺🇸 United States

Запущен Jul 10, 2023 с Cape Canaveral Space Force Station

Loading…

Ближайшие Пролёты (ближайшие 24 часа)

TLE

СвежийSource: CelesTrak SupGP

Эпоха: Sep 15, 2026, 02:21 UTC

1 57302C 23096N   26258.09840278  .00503100  00000+0  60446-2 0  2586
2 57302  42.9997 228.3715 0001912 270.9173  91.6396 15.59710669    13

Отслеживайте STARLINK-30233 в реальном времени с AllMySat

Download on the App Store